Location: Sobotiste
(48.7170°N, 17.4000°E)
Time: 23:57:58
(UTC+01:00)

CUTE-I - Visible Passes

Search period start: 14 March 2026 00:00
Search period end: 24 March 2026 00:00
Orbit: 803 x 819 km, 98.7° (Epoch: 13 March)

Date Brightness Start Highest point End Pass type
(mag) Time Alt. Az. Time Alt. Az. Time Alt. Az.
14 Mar ? 04:42:44 10° ENE 04:44:31 12° E 04:46:16 10° ESE visible
15 Mar ? 19:06:02 10° W 19:07:29 11° W 19:08:55 10° WNW visible
16 Mar ? 18:40:09 10° SW 18:43:41 18° W 18:47:13 10° NW visible
17 Mar ? 05:10:34 10° NE 05:14:31 21° E 05:18:26 10° SE visible
18 Mar ? 04:48:16 10° ENE 04:50:44 13° E 04:53:12 10° ESE visible
20 Mar ? 18:46:43 10° SW 18:49:53 16° W 18:53:03 10° NW visible
21 Mar ? 05:16:30 10° NE 05:20:42 23° E 05:24:51 10° SE visible
22 Mar ? 04:53:57 10° NE 04:56:57 15° E 04:59:55 10° ESE visible
